Skip Page Navigation
NASA JPL Caltech
NASA Logo - Jet Propulsion Laboratory + View the NASA Portal
+ Center for Near-Earth Object Studies
JPL Home Earth Solar System Stars & Galaxies Technology
JPL Solar System Dynamics
BODIES ORBITS EPHEMERIDES TOOLS PHYSICAL DATA DISCOVERY FAQ SITE MAP
IMPORTANT: The SSD Announcement email list is now available. Major changes are coming in the near future, including possible hostname and/or URL changes. To be notified of such changes, subscribe to this email list.

Please visit this page for more details.


JPL Small-Body Database Browser
Search: [ help ]  
109362 (2001 QO157)
Classification: Main-belt Asteroid          SPK-ID: 2109362
Ephemeris | Orbit Diagram | Orbital Elements | Mission Design | Physical Parameters | Discovery Circumstances | Close-Approach Data ]

[ show orbit diagram ]
Orbital Elements at Epoch 2458600.5 (2019-Apr-27.0) TDB
Reference: JPL 16 (heliocentric ecliptic J2000)
 Element Value Uncertainty (1-sigma)   Units 
e .06387926541430111 3.8374e-08  
a 2.363546808754114 1.2574e-08 au
q 2.212565174838586 8.803e-08 au
i 5.882473280226495 5.8927e-06 deg
node 316.5234906115398 4.0354e-05 deg
peri 271.6807306110705 6.2782e-05 deg
M 49.32870705241734 4.8044e-05 deg
tp 2458418.637997004954
(2018-Oct-27.13799701)
0.00017719 TDB
period 1327.225564794286
3.63
1.0591e-05
2.9e-08
d
yr
n .2712425148741 2.1644e-09 deg/d
Q 2.514528442669643 1.3377e-08 au
  Orbit Determination Parameters
   # obs. used (total)      599  
   data-arc span      7206 days (19.73 yr)  
   first obs. used      2000-02-08  
   last obs. used      2019-11-01  
   planetary ephem.      DE431  
   SB-pert. ephem.      SB431-N16  
   condition code      0  
   norm. resid. RMS      .51753  
   source      ORB  
   producer      Otto Matic  
   solution date      2019-Nov-07 12:51:29  

Additional Information
 Earth MOID = 1.21186 au 
 Jupiter MOID = 2.49441 au 
 T_jup = 3.540 
[ show covariance matrix ]

Ephemeris | Orbit Diagram | Orbital Elements | Mission Design | Physical Parameters | Discovery Circumstances | Close-Approach Data ]

Physical Parameter Table
Parameter Symbol Value Units Sigma Reference Notes
absolute magnitude H 15.9   n/a MPO439734  
rotation period rot_per 194.772 h n/a LCDB (Rev. 2019-January); Warner et al., 2009 Result based on fragmentary lightcurve(s), may be completely wrong.
Published Reference List:
[Waszczak, A.; Chang, C.-K.; Ofeck, E.O.; Laher, F.; et al. (2015) Astron. J. 150, A75.]

109362 (2001 QO157)          Discovered 2001-Aug-23 by LONEOS at Anderson Mesa
Reference: 20051019/Numbers.arcLast Updated: 2005-10-26

[ hide close-approach data ]
Close-Approach Data   ...sorted by Date/Time (TDB)
Date/Time (TDB) Time Uncertainty
(days_HH:MM)
Body Nominal Distance (au) Minimum Distance (au) Maximum Distance (au) V-relative (km/s) V-infinity (km/s) JD (TDB) Time Uncertainty (minutes) Semi-major axis (km) Semi-minor axis (km) range-LOV angle (deg) N-sigma BP Orbit Ref. Reference Modified
2023-Nov-21 03:37 00:01 Thisb 0.0238101843177945 0.0238079336691421 0.0238124350733827 2.65232428555475 2.65232417758915 2460269.650438874 1.2042719797158 141.573287658639 44.062600931506 39.9839553401215 55334.9455490396 T 16 CATAB v2.0f-lin.ifort 2019-Nov-07 12:51:45 2019-Nov-07 12:51
Ephemeris | Orbit Diagram | Orbital Elements | Mission Design | Physical Parameters | Discovery Circumstances | Close-Approach Data ]
ABOUT SSD CREDITS/AWARDS PRIVACY/COPYRIGHT GLOSSARY LINKS
FirstGov 2020-Jan-28 07:04 UT
(server date/time)  
NASA Home Page
Site Manager:   Ryan S. Park
Webmaster  Alan B. Chamberlin